Location: ?????????
(41.2393°N, 22.9479°E)
Time: 12:55:32
(UTC+00:00)

Daily predictions for brighter satellites

Satellite Brightness Start Highest point End
(mag) Time Altitude Azimuth Time Altitude Azimuth Time Altitude Azimuth
COSMOS 2406 4.4 18:31:40 10° SSE 18:36:01 22° E 18:40:22 10° NE
Resurs 01 Rocket 2.0 18:33:59 10° SSE 18:38:15 49° ENE 18:42:33 10° N
Cosmos 1833 Rocket 3.0 18:36:32 10° S 18:41:47 43° ESE 18:47:05 10° NE
H-2A R/B 2.1 18:46:36 10° NNE 18:51:06 79° ESE 18:55:35 10° S
Cosmos 676 Rocket 4.4 18:46:56 10° NNW 18:52:12 66° WSW 18:57:22 10° S
Cosmos 1536 Rocket 3.8 18:48:33 10° SSE 18:52:41 47° E 18:56:52 10° NNE
Okean-O 4.4 18:49:32 10° SSW 18:53:29 31° W 18:57:27 10° NNW
Cosmos 1741 Rocket 4.5 18:49:42 10° N 18:54:52 48° ENE 18:59:42 11° SE
Cosmos 1703 3.9 18:52:16 10° SSE 18:55:48 35° E 18:59:21 10° NNE
CARTOSAT-1 4.4 18:52:10 10° SE 18:56:02 35° ENE 18:59:58 10° N
Ariane Rocket 3.2 18:52:00 10° SSE 18:56:57 56° ENE 19:01:56 10° N
USA 245 4.5 18:54:42 11° SE 18:57:39 24° ENE 19:00:23 10° NNE
IRS-1A Rocket 4.4 18:54:29 10° SSE 19:00:23 80° ENE 19:06:16 10° NNW
ATLAS 2AS CENTAUR R/B 3.2 18:55:47 10° NW 19:02:36 57° WSW 19:08:59 10° SSE
ASTRO E2 4.4 19:01:41 10° SSW 19:03:52 14° SSE 19:04:55 13° SSE
PSLV R/B 4.2 19:03:05 10° N 19:07:15 77° WNW 19:11:25 10° SSW
SPOT 3 Rocket 4.1 19:03:41 12° SE 19:08:09 45° ENE 19:13:07 10° N
Terra 3.5 19:05:11 11° ESE 19:08:22 19° ENE 19:11:44 10° NNE
SPOT 5 3.9 19:07:44 13° ESE 19:10:39 26° ENE 19:14:16 10° NNE
SL-24 R/B 4.3 19:07:33 11° SSE 19:11:42 72° ENE 19:16:42 10° N
CZ-4B R/B 1.1 19:12:20 10° N 19:15:13 76° WNW 19:18:07 10° SSW
Cosmos 1544 Rocket 4.1 19:13:07 10° NNW 19:17:22 56° W 19:21:37 10° S
RESURS DK-1 2.3 19:13:46 10° NNW 19:17:56 87° ENE 19:21:02 17° SSE
Cosmos 2082 Rocket 2.8 19:14:41 10° S 19:19:51 36° ESE 19:25:01 10° NE
Cosmos 1331 Rocket 4.0 19:15:10 10° SSW 19:20:27 76° ESE 19:25:45 10° NNE
Cosmos 1850 Rocket 4.0 19:15:23 10° NNW 19:20:36 84° ENE 19:24:51 15° SSE
Cosmos 2074 Rocket 4.0 19:14:50 10° N 19:21:06 70° E 19:26:38 13° SSE
Cosmos 1271 Rocket 3.8 19:17:32 10° NNW 19:21:18 43° W 19:25:00 10° SSW
Cosmos 1455 3.1 19:18:12 10° NNW 19:21:53 46° W 19:25:32 10° SSW
IRAS Rocket 4.2 19:16:38 10° NNE 19:22:14 75° ESE 19:27:45 10° S
Cosmos 2360 4.4 19:20:08 10° NNW 19:25:50 62° ENE 19:29:57 19° SE
Spot 2 Rocket 4.0 19:23:51 18° SE 19:27:21 44° ENE 19:32:11 10° N
Nadezhda 1 Rocket 4.1 19:22:07 11° SSE 19:27:50 55° E 19:33:43 10° NNE
Helios 1A Rocket 3.7 19:28:47 21° SE 19:30:59 36° ENE 19:34:46 10° N
Cosmos 1328 4.3 19:29:37 21° SSE 19:31:49 40° E 19:35:35 10° NNE
GEOS 3 Rocket 3.6 19:28:10 18° SSE 19:32:01 76° SW 19:37:09 10° NW
Cosmos 2084 Rocket 3.8 19:31:21 10° NNW 19:35:11 47° NE 19:37:25 23° ESE
Lacrosse 5 3.8 19:32:07 10° WNW 19:35:51 21° WSW 19:39:35 10° SSW
SPOT 1/Viking Rocket 4.2 19:31:39 10° S 19:36:38 51° W 19:41:41 10° NNW
Cosmos 1900 4.4 19:31:31 10° NNW 19:36:42 77° ENE 19:39:54 23° SE
Delta 2 Rocket 3.7 19:37:38 10° WSW 19:40:34 28° S 19:40:58 27° S
ERS-1 Rocket 3.2 19:42:07 23° SE 19:45:05 56° ENE 19:50:00 10° N
Meteor 1-21 Rocket 4.2 19:41:11 10° S 19:46:47 89° E 19:52:31 10° N
ATLAS 5 CENTAUR R/B 4.0 19:40:34 10° NW 19:48:21 29° WSW 19:51:22 12° SSW
Cosmos 1610 Rocket 4.5 19:45:06 10° N 19:51:22 75° E 19:55:37 22° SSE
Cosmos 1892 3.7 19:51:38 26° ESE 19:52:02 27° E 19:55:15 10° NNE
Cosmos 1302 Rocket 3.9 19:47:40 12° S 19:52:30 71° ESE 19:57:40 10° NNE
X-37B 0.1 19:51:09 10° WNW 19:53:57 74° SSW 19:54:15 64° SSE
Cosmos 2154 Rocket 3.9 19:49:09 10° N 19:55:23 89° E 19:59:44 21° S
Cosmos 192 4.3 19:52:08 10° SSW 19:57:01 89° W 20:01:57 10° NNE
SL-8 R/B 3.9 19:54:38 10° WNW 19:59:22 58° SW 20:01:22 32° SSE
Cosmos 2228 3.4 19:55:53 10° NNW 20:00:04 60° W 20:02:34 23° SSW
Cosmos 1892 Rocket 3.5 20:00:53 31° SSE 20:02:48 64° E 20:07:08 10° NNE
Cosmos 968 Rocket 3.6 19:58:57 10° NNW 20:04:08 62° ENE 20:06:30 32° SE
Cosmos 1697 Rocket 2.9 19:59:20 10° NNW 20:04:53 63° WSW 20:08:06 25° S
Cosmos 1980 Rocket 2.3 19:59:55 10° NNW 20:05:36 66° ENE 20:08:21 31° SE
SL-16 R/B 4.0 20:03:40 10° N 20:07:51 21° NE 20:11:07 13° E
USA 267 3.8 20:04:11 10° ENE 20:10:01 34° SE 20:12:17 27° SSE
ATLAS 5 CENTAUR R/B 1.1 20:09:30 45° S 20:10:20 58° ESE 20:14:14 10° NE
SL-8 Rocket 4.5 20:04:47 10° N 20:10:43 45° ENE 20:13:23 29° SE
Cosmos 2369 3.7 20:08:07 10° NNW 20:13:54 86° ENE 20:16:35 33° SSE
Cosmos 2058 Rocket 3.4 20:10:33 10° N 20:14:53 52° E 20:16:04 40° SE
Resurs 01 Rocket 4.2 20:12:23 10° SW 20:15:00 15° W 20:17:38 10° NW
Cosmos 1408 2.3 20:14:47 61° SE 20:15:07 66° E 20:18:33 10° NNE
CZ-2C R/B 3.7 20:13:32 10° N 20:18:04 79° WNW 20:20:34 26° SSW
Meteor 2-1 Rocket 4.4 20:13:40 10° NNW 20:19:08 65° W 20:22:19 26° S
In-Cosmos 22 Rocket 4.4 20:17:20 35° SE 20:19:17 50° E 20:24:31 10° NNE
COSMOS 2406 4.0 20:14:17 10° SW 20:19:54 52° WNW 20:25:32 10° NNE
Cosmos 2344 4.4 20:10:38 10° NW 20:19:59 88° ENE 20:28:17 26° SSE
SJ 16-02 3.6 20:22:53 10° NNE 20:25:14 14° ENE 20:26:38 12° ENE
Cosmos 2366 rocket 4.3 20:24:54 10° N 20:31:08 55° E 20:33:34 36° SE
Cosmos 1867 3.5 20:27:18 10° NNW 20:32:47 88° WSW 20:34:38 43° SSE
Cosmos 1825 2.6 20:33:23 46° E 20:33:23 46° E 20:36:45 10° NNE
Cosmos 2218 Rocket 4.2 20:31:10 10° N 20:37:32 62° E 20:39:56 38° SE
Cosmos 2322 Rocket 3.7 20:37:24 10° N 20:42:09 27° NE 20:44:41 20° E
Cosmos 1869 3.7 20:39:10 10° N 20:42:58 48° E 20:42:59 48° E
Meteor 1-27 4.3 20:38:00 10° N 20:43:33 64° ENE 20:45:09 44° SE
ARIANE 5 R/B 2.8 20:44:14 46° SSW 20:45:18 62° WSW 20:49:42 10° NNW
Terra 2.5 20:44:04 32° SSW 20:45:45 46° W 20:50:21 10° NNW
Cosmos 1959 Rocket 4.4 20:41:41 10° N 20:47:48 71° E 20:49:51 43° SSE
GP-B 3.0 20:43:49 10° N 20:48:16 88° E 20:49:01 62° S
SPOT 5 4.2 20:46:57 20° SW 20:48:41 26° W 20:52:21 10° NW
SAR-Lupe-4 3.6 20:52:00 10° NNE 20:55:18 74° N 20:55:18 74° N
Cosmos 2278 3.6 20:50:06 10° NNW 20:55:50 84° WSW 20:57:25 50° SSE
Cosmos 2341 Rocket 4.2 20:50:26 10° NNW 20:56:41 66° W 20:59:17 36° SSW
USA 276 3.7 20:54:16 10° NW 20:56:54 30° NNE 20:56:54 30° NNE
Cosmos 864 Rocket 4.4 20:51:37 10° N 20:57:50 86° E 20:59:56 45° S
FALCON 9 DEB 3.9 20:55:19 10° NW 20:58:00 46° N 20:58:00 46° N
Cosmos 1992 Rocket 4.3 20:57:38 31° SW 21:00:08 66° WNW 21:05:22 10° NNE
Cosmos 2333 Rocket 4.4 20:58:52 10° N 21:02:31 17° NE 21:06:07 10° E
Cosmos 2082 Rocket 3.8 20:58:48 10° WSW 21:03:55 33° WNW 21:09:03 10° N
Cosmos 1633 3.5 21:05:14 38° NE 21:05:14 38° NE 21:07:36 10° NNE
Okean 1-7 Rocket 3.7 21:03:33 58° SW 21:04:17 71° W 21:08:47 10° N
Cosmos 1758 Rocket 4.0 21:05:17 46° E 21:05:17 46° E 21:09:13 10° NNE
Cosmos 1486 Rocket 3.9 21:03:35 10° NNW 21:08:49 81° WSW 21:09:45 61° S
ADEOS Rocket 4.3 21:06:17 28° ESE 21:09:34 42° ENE 21:16:42 10° N
ASTEX 1 3.8 21:05:14 10° N 21:10:09 57° W 21:11:40 40° SW
Gbstr 26 Del rocket 3.4 21:16:35 51° ENE 21:16:35 51° ENE 21:20:14 10° ENE
Cosmos 2360 Rocket 3.5 21:11:44 10° N 21:16:47 32° ENE 21:18:47 25° E
Cosmos-2242 3.4 21:14:27 10° N 21:18:22 52° ENE 21:18:22 52° ENE
Cosmos 1812 Rocket 3.6 21:14:36 10° N 21:19:01 70° ENE 21:19:01 70° ENE
Cosmos 2181 Rocket 4.4 21:17:08 31° SW 21:19:59 56° W 21:26:07 10° N
Cosmos 1606 3.9 21:16:30 10° N 21:19:29 34° NE 21:19:29 34° NE
Cosmos 1821 Rocket 4.0 21:19:11 10° N 21:25:23 70° E 21:26:44 53° SE
Cosmos 1602 Rocket 3.6 21:28:29 68° W 21:28:31 68° W 21:32:50 10° N
CENTAUR R/B 4.2 21:35:23 15° E 21:35:23 15° E 21:38:01 10° ENE
Cosmos 44 4.0 21:35:47 39° ENE 21:35:47 39° ENE 21:38:58 10° NE
Cosmos 1354 Rocket 3.8 21:33:24 10° NNW 21:38:44 89° ENE 21:39:12 75° SSE
Cosmos 2237 4.2 21:33:47 10° NNW 21:39:31 71° ENE 21:40:30 58° ESE
Spot 4 3.7 21:42:42 84° SW 21:42:49 86° WSW 21:47:38 10° NNW
ALOS 2 2.9 21:44:13 59° ENE 21:44:13 59° ENE 21:48:20 10° N
Nadezhda 3 Rocket 3.8 21:43:20 59° S 21:44:37 90° SE 21:50:49 10° N
Cosmos 1503 Rocket 4.1 21:42:02 10° NNW 21:47:14 62° WSW 21:47:32 61° WSW
Cosmos 1980 Rocket 4.1 21:45:26 10° WNW 21:48:57 17° W 21:50:07 16° WSW
ERS-2 4.1 21:46:58 10° NE 21:48:35 21° NE 21:48:35 21° NE
SL-16 R/B 2.2 21:46:49 10° NNW 21:52:27 65° WSW 21:52:57 62° SW
Cosmos 1777 Rocket 3.9 21:47:13 10° NNW 21:52:32 77° ENE 21:52:54 73° ESE
Cosmos 2219 Rocket 3.8 21:47:45 10° N 21:52:33 27° NE 21:55:00 20° E
Cosmos 2058 3.3 21:53:50 62° NNE 21:53:50 62° NNE 21:57:22 10° N
USA 267 3.5 21:46:47 10° NE 21:53:17 70° NW 21:59:31 11° WSW
Cosmos 1953 Rocket 4.0 21:55:55 54° ENE 21:55:55 54° ENE 21:59:39 10° NNE
ATLAS 5 CENTAUR R/B 4.2 21:52:59 10° WNW 21:55:19 15° NW 21:57:49 10° N
H-2A R/B 3.7 21:52:44 10° NNE 21:56:24 66° N 21:56:24 66° N
Meteor 2-2 Rocket 4.3 21:54:20 10° N 22:00:23 75° E 22:01:20 62° SE
Cosmos 1825 Rocket 3.8 22:04:05 62° NW 22:04:05 62° NW 22:07:59 10° N
SJ 16-02 1.8 21:59:50 10° NNW 22:03:35 53° WNW 22:03:35 53° WNW
SL-4 R/B 3.3 22:04:44 31° NNW 22:04:54 31° NNW 22:08:12 10° NE
Cosmos 2221 3.1 22:11:38 10° N 22:15:26 50° NE 22:15:26 50° NE
PSLV R/B 4.2 22:13:42 10° NNE 22:17:51 52° ENE 22:17:51 52° ENE
Nimbus 7 Rocket 4.4 22:17:11 10° NNE 22:23:06 65° ESE 22:23:46 61° SE
USA 234 3.4 22:22:04 28° ESE 22:25:46 69° NE 22:32:17 10° NW
Cosmos 2322 Rocket 2.6 22:20:59 10° NW 22:26:25 47° WSW 22:26:28 47° WSW
Cosmos 1842 Rocket 4.1 22:24:19 10° N 22:28:19 53° ENE 22:28:19 53° ENE
CRYOSAT 2 4.3 22:29:27 81° ENE 22:29:27 81° ENE 22:34:16 10° N
Cosmos 1934 Rocket 3.9 22:27:49 10° NNW 22:33:54 69° W 22:34:46 61° SW
Cosmos 1763 Rocket 3.4 22:41:35 77° ESE 22:41:35 77° ESE 22:46:53 10° NNE
Resurs 1-4 Rocket 4.2 22:44:12 10° ENE 22:47:04 14° E 22:48:00 14° ESE
Cosmos 2333 Rocket 2.1 22:41:45 10° NNW 22:47:34 85° WSW 22:48:05 74° S
Cosmos 1933 4.1 22:45:59 10° N 22:49:07 50° NNE 22:49:07 50° NNE
USA 290 4.5 22:47:08 10° N 22:48:53 25° NNE 22:48:53 25° NNE
Cosmos 841 Rocket 4.3 22:53:16 37° E 22:53:16 37° E 22:57:54 10° NE
ADEOS Rocket 4.0 22:53:14 37° SW 22:54:54 42° W 23:02:08 10° NNW
Cosmos 1812 3.9 22:51:36 10° N 22:54:29 38° NE 22:54:29 38° NE
Cosmos 990 Rocket 3.8 22:52:04 10° NNW 22:57:14 82° ENE 22:57:26 80° ESE
Cosmos 972 4.4 22:52:26 10° NNW 22:57:34 88° ENE 22:57:54 79° SSE
Cosmos 1727 Rocket 4.0 22:58:59 60° SSE 23:00:09 76° E 23:06:26 10° N
ISS -1.7 23:00:48 27° N 23:00:48 27° N 23:03:19 10° NE
Cosmos 2360 Rocket 2.9 22:55:36 10° NW 23:00:31 38° W 23:00:31 38° W
Cosmos 2227 Rocket 4.0 23:00:37 17° ESE 23:01:17 18° E 23:04:55 10° ENE
CZ-2D R/B 3.9 22:58:46 10° NE 23:02:27 19° E 23:03:21 18° ESE
Meteor 2-3 Rocket 3.6 23:04:49 66° WSW 23:05:24 72° W 23:11:00 10° N
Cosmos 1076 Rocket 4.0 23:09:44 55° NW 23:09:44 55° NW 23:13:35 10° N
Cosmos 540 Rocket 3.3 23:10:08 82° SE 23:10:17 84° ESE 23:15:27 10° NNE
Cosmos 2333 4.4 23:04:57 10° NNW 23:10:34 54° WSW 23:10:38 54° WSW
Thor Agena Rocket 4.4 23:05:59 10° NNE 23:10:44 37° E 23:11:09 36° ESE
Cosmos 468 Rocket 4.0 23:10:37 64° W 23:11:05 67° WNW 23:16:24 10° NNE
SL-16 R/B 4.4 23:07:35 10° ESE 23:12:29 25° ENE 23:17:22 10° N
ADEOS II 4.4 23:10:50 10° ENE 23:13:08 13° E 23:14:55 11° ESE
BREEZE-M DEB (TANK) 4.3 23:12:25 28° NW 23:13:32 36° N 23:19:47 10° ENE
NOSS 3-2 (A) 3.1 23:13:40 66° SW 23:14:30 82° NW 23:20:44 10° NNE
Cosmos 1862 4.0 23:21:22 49° NE 23:21:22 49° NE 23:24:34 10° NNE
Cosmos 2100 Rocket 4.1 23:16:20 10° N 23:22:43 69° E 23:24:35 46° SSE
ERS-2 4.5 23:21:03 10° NNW 23:22:56 16° WNW 23:22:56 16° WNW
Cosmos 1782 3.7 23:19:24 10° NNW 23:22:20 44° NW 23:22:20 44° NW
CENTAUR R/B 2.4 23:22:31 56° SW 23:23:52 79° NW 23:30:47 10° NNE
Timation 1 Rocket 4.3 23:23:19 62° S 23:24:16 75° ESE 23:30:17 10° NNE
Cosmos 2173 Rocket 4.2 23:18:45 10° N 23:25:07 68° E 23:27:07 45° SSE
Cosmos 2237 Rocket 3.4 23:22:16 10° N 23:27:32 38° ENE 23:31:24 17° ESE
Cosmos 2297 Rocket 2.6 23:29:19 45° SE 23:30:04 48° ESE 23:35:29 10° NE
Cosmos 2151 3.8 23:31:03 43° WNW 23:31:03 43° WNW 23:34:49 10° N
COSMOS 2428 2.6 23:28:13 10° NNW 23:33:55 72° WSW 23:34:37 64° SSW
Cosmos 2219 4.4 23:33:09 27° ESE 23:34:15 29° ESE 23:39:01 10° NE
Cosmos 2219 Rocket 2.6 23:31:16 10° NW 23:36:40 46° WSW 23:36:40 46° WSW
Cosmos 2016 Rocket 4.4 23:34:35 10° N 23:40:35 56° E 23:43:07 34° SE
Cosmos 2322 4.2 23:40:30 10° NW 23:45:45 42° WSW 23:45:45 42° WSW
Cosmos 1898 Rocket 3.6 23:41:58 10° NNW 23:47:00 54° WSW 23:47:02 54° WSW
Cosmos 1151 Rocket 3.2 23:43:38 10° N 23:48:00 63° E 23:48:25 59° ESE
CZ-4 R/B 4.4 23:47:06 10° NNE 23:51:53 49° E 23:52:53 42° SE
Cosmos 1937 Rocket 3.4 23:47:04 10° NNW 23:52:16 69° WSW 23:52:46 64° SW
